Flag for U.S.A. Weather past 2 weeks in Spartanburg, South Carolina, U.S.A.

Now
73 °F

Mild.


Feels Like: 70 °F
Forecast: 73 / 90 °F
Wind: No wind

Location: Spartanburg Memorial

Current Time: Jul 29, 2015 at 8:08:56 AM

Latest Report: Jul 29, 2015 at 7:35 AM


Visibility: 7 mi

Pressure: 30.02 "Hg

Humidity: 94%

Dew point: 72 °F

Location of SpartanburgLocation

Historic Weather in Spartanburg — Graph

°F

Spartanburg temperature yesterday

Maximum temperature yesterday: 91 °F (at 12:55 PM)
Minimum temperature yesterday: 73 °F (at 4:35 AM)
Average temperature yesterday: 80 °F

Past Weeks' High & Low Weather Summary

 TemperatureHumidityPressure
High95 °F (Jul 18, 2:15 PM)100% (Jul 14, 7:15 AM)30.10 "Hg (Jul 14, 7:15 AM)
Low70 °F (Jul 14, 6:15 AM)36% (Jul 27, 4:15 PM)29.65 "Hg (Jul 14, 8:15 PM)
Average81 °F73%29.95 "Hg
* Reported Jul 14 6:15 AM — Jul 29 6:55 AM, Spartanburg, Weather by CustomWeather, © 2015

Note: Actual official high and low records may vary slightly from our data, if they occured in-between our weather recording intervals... More about our weather records

Advertising

Spartanburg weather history for previous 24 hours

 ConditionsComfort  
Time TempWeatherWind HumidityBarometerVisibility
6:55 AM
Wed, Jul 29
73 °FMild.No wind94%30.00 "Hg10 mi
6:35 AM73 °FFog.No wind94%29.99 "Hg5 mi
6:15 AM73 °FFog.No wind94%29.98 "Hg5 mi
5:55 AM73 °FFog.No wind100%29.98 "Hg2 mi
5:35 AM73 °FFog.No wind94%29.98 "Hg1 mi
5:15 AM73 °FFog.No wind100%29.98 "Hg1 mi
4:55 AM73 °FMild.3 mph100%29.98 "Hg7 mi
4:35 AM73 °FMild.3 mph100%29.98 "Hg7 mi
4:15 AM73 °FMild.3 mph100%29.98 "Hg7 mi
3:35 AM73 °FMild.No wind100%29.97 "Hg10 mi
3:15 AM73 °FMild.No wind100%29.97 "Hg10 mi
2:55 AM73 °FMild.No wind100%29.99 "Hg10 mi
2:35 AM75 °FMild.No wind94%30.00 "Hg10 mi
2:15 AM73 °FMild.No wind100%30.00 "Hg10 mi
1:55 AM75 °FMild.No wind94%30.01 "Hg10 mi
1:35 AM75 °FMild.No wind94%30.02 "Hg10 mi
1:15 AM75 °FMild.No wind94%30.02 "Hg10 mi
12:55 AM75 °FMild.No wind94%30.01 "Hg10 mi
12:35 AM75 °FMild.No wind94%30.01 "Hg10 mi
11:55 PM
Tue, Jul 28
77 °FWarm.No wind89%30.00 "Hg10 mi
11:15 PM77 °FWarm.No wind89%30.00 "Hg10 mi
10:55 PM77 °FWarm.No wind89%30.00 "Hg10 mi
10:35 PM77 °FWarm.No wind89%30.00 "Hg10 mi
10:15 PM79 °FWarm.No wind84%30.00 "Hg10 mi
9:55 PM79 °FWarm.No wind84%29.99 "Hg10 mi
9:35 PM79 °FWarm.No wind84%29.99 "Hg10 mi
8:55 PM79 °FWarm.No wind84%29.97 "Hg10 mi
8:35 PM79 °FWarm.3 mph84%29.98 "Hg10 mi
8:15 PM81 °FWarm.5 mph79%29.99 "Hg10 mi
7:55 PM81 °FWarm.5 mph79%29.98 "Hg10 mi
7:35 PM81 °FWarm.3 mph84%29.97 "Hg10 mi
7:15 PM82 °FWarm.6 mph79%29.98 "Hg10 mi
6:55 PM82 °FWarm.5 mph79%29.97 "Hg10 mi
6:35 PM82 °FWarm.7 mph79%29.97 "Hg10 mi
6:15 PM86 °FWarm.9 mph70%29.97 "Hg10 mi
5:55 PM86 °FWarm.7 mph70%29.97 "Hg10 mi
5:35 PM86 °FWarm.6 mph75%29.97 "Hg10 mi
5:15 PM86 °FWarm.5 mph70%29.97 "Hg10 mi
4:55 PM82 °FWarm.3 mph79%29.97 "Hg10 mi
4:35 PM82 °FThundershowers. Cloudy.6 mph74%29.97 "Hg10 mi
4:15 PM79 °FDrizzle. Cloudy.No wind84%29.97 "Hg10 mi
3:55 PM77 °FThundershowers. Cloudy.3 mph89%29.97 "Hg10 mi
3:35 PM77 °FStrong thunderstorms. Cloudy.13 mph89%30.00 "Hg1 mi
3:15 PM81 °FThundershowers. Cloudy.13 mph79%30.00 "Hg10 mi
2:55 PM90 °FThundershowers. Cloudy.7 mph55%29.98 "Hg10 mi
2:35 PM91 °FThundershowers. Cloudy.No wind52%29.98 "Hg10 mi
2:15 PM91 °FHot.7 mph56%29.98 "Hg10 mi
1:55 PM91 °FHot.6 mph56%29.99 "Hg10 mi
1:35 PM90 °FHot.3 mph59%30.00 "Hg10 mi
1:15 PM91 °FHot.3 mph56%30.01 "Hg10 mi
12:55 PM91 °FHot.No wind56%30.01 "Hg10 mi
12:35 PM90 °FHot.6 mph59%30.02 "Hg10 mi
12:15 PM90 °FHot.5 mph59%30.02 "Hg10 mi
11:55 AM88 °FWarm.No wind62%30.03 "Hg10 mi
11:35 AM86 °FWarm.3 mph66%30.03 "Hg10 mi
11:15 AM84 °FWarm.No wind70%30.03 "Hg10 mi
10:55 AM84 °FWarm.No wind70%30.03 "Hg10 mi
10:35 AM82 °FWarm.No wind74%30.03 "Hg10 mi
10:15 AM82 °FWarm.No wind74%30.04 "Hg10 mi
9:55 AM82 °FWarm.No wind74%30.04 "Hg10 mi
9:35 AM81 °FWarm.No wind79%30.03 "Hg10 mi
9:15 AM79 °FWarm.No wind84%30.03 "Hg10 mi
8:55 AM79 °FWarm.3 mph84%30.03 "Hg10 mi
8:35 AM79 °FWarm.3 mph84%30.03 "Hg10 mi
8:15 AM77 °FWarm.3 mph83%30.03 "Hg10 mi
Weather by CustomWeather, © 2015

See weather overviewHow to use our weather pages